Location: Sternwarte_Laufen
(47.9344°N, 12.9346°E)
Time: 03:31:09
(UTC+02:00)

ISS - Pass Details

Date: 17 May 2018
Orbit: 402 x 407 km, 51.6° (Epoch: 23 May)

Event Time Altitude Azimuth Distance (km) Brightness Sun altitude
Rises 04:12:23 0° 290° (WNW) 2,320 -0.2 -10.8°
Reaches altitude 10° 04:14:30 10° 295° (WNW) 1,460 -1.2 -10.5°
Maximum altitude 04:17:43 56° 15° (NNE) 487 -3.1 -10.1°
Drops below altitude 10° 04:20:56 10° 95° (E) 1,456 -0.4 -9.7°
Sets 04:23:02 0° 100° (E) 2,315 0.6 -9.5°
